Location: Camaret
(48.2753°N, 4.5961°W)
Time: 00:53:16
(UTC+00:00)

S3M - Pass Details

Date: 29 October 2020
Orbit: 950 x 1003 km, 83.0° (Epoch: 26 November)

Event Time Altitude Azimuth Distance (km) Brightness Sun altitude
Rises 18:58:19 0° 189° (S) 3,611 7.1 -19.6°
Reaches altitude 10° 19:00:47 10° 190° (S) 2,672 6.4 -20.0°
Maximum altitude 19:06:54 84° 278° (W) 970 4.0 -21.0°
Drops below altitude 10° 19:13:08 10° 8° (N) 2,716 6.3 -22.0°
Sets 19:15:40 0° 9° (N) 3,674 7.0 -22.5°
